TimeEST,TemperatureF,Dew PointF,Humidity,Sea Level PressureIn,VisibilityMPH,Wind Direction,Wind SpeedMPH,Gust SpeedMPH,PrecipitationIn,Events,Conditions,WindDirDegrees,DateUTC
12:15 AM,55.4,50.0,82,30.09,10.0,East,5.8,-,N/A,,Scattered Clouds,100,2013-02-22 05:15:00
12:35 AM,55.4,50.0,82,30.08,10.0,East,6.9,-,N/A,,Mostly Cloudy,100,2013-02-22 05:35:00
12:55 AM,55.4,50.0,82,30.08,10.0,East,6.9,-,N/A,,Overcast,100,2013-02-22 05:55:00
1:15 AM,55.4,50.0,82,30.08,10.0,East,6.9,-,N/A,,Overcast,90,2013-02-22 06:15:00
1:35 AM,55.4,51.8,88,30.09,10.0,ENE,5.8,-,N/A,,Overcast,70,2013-02-22 06:35:00
1:55 AM,55.4,51.8,88,30.09,10.0,ENE,6.9,-,N/A,,Overcast,70,2013-02-22 06:55:00
2:15 AM,55.4,51.8,88,30.08,10.0,East,9.2,-,N/A,,Overcast,80,2013-02-22 07:15:00
2:55 AM,55.4,51.8,88,30.07,10.0,East,9.2,-,N/A,,Overcast,100,2013-02-22 07:55:00
3:15 AM,55.4,51.8,88,30.06,10.0,East,10.4,-,N/A,,Overcast,100,2013-02-22 08:15:00
3:35 AM,57.2,53.6,88,30.07,10.0,East,9.2,-,N/A,,Overcast,90,2013-02-22 08:35:00
3:55 AM,57.2,53.6,88,30.06,10.0,East,8.1,-,N/A,,Overcast,80,2013-02-22 08:55:00
4:15 AM,59.0,53.6,82,30.06,10.0,ENE,8.1,-,N/A,,Overcast,70,2013-02-22 09:15:00
4:35 AM,59.0,53.6,82,30.06,10.0,East,11.5,-,N/A,,Overcast,80,2013-02-22 09:35:00
4:55 AM,59.0,53.6,82,30.07,10.0,ENE,8.1,-,N/A,,Overcast,60,2013-02-22 09:55:00
5:15 AM,59.0,53.6,82,30.07,10.0,NE,8.1,-,N/A,,Overcast,50,2013-02-22 10:15:00
5:35 AM,59.0,53.6,82,30.07,10.0,ENE,11.5,-,N/A,,Overcast,70,2013-02-22 10:35:00
5:55 AM,59.0,53.6,82,30.07,10.0,East,12.7,-,N/A,,Overcast,80,2013-02-22 10:55:00
6:15 AM,59.0,53.6,82,30.07,10.0,East,10.4,-,N/A,,Overcast,80,2013-02-22 11:15:00
6:35 AM,59.0,55.4,88,30.07,10.0,East,12.7,17.3,N/A,,Overcast,80,2013-02-22 11:35:00
6:55 AM,59.0,53.6,82,30.08,10.0,East,9.2,18.4,N/A,,Overcast,80,2013-02-22 11:55:00
7:15 AM,59.0,53.6,82,30.08,10.0,East,12.7,-,N/A,,Overcast,90,2013-02-22 12:15:00
7:55 AM,59.0,53.6,82,30.09,10.0,ENE,9.2,-,N/A,,Overcast,70,2013-02-22 12:55:00
8:15 AM,57.2,53.6,88,30.09,10.0,ENE,10.4,-,N/A,,Overcast,70,2013-02-22 13:15:00
8:35 AM,57.2,53.6,88,30.09,10.0,ENE,12.7,-,N/A,,Overcast,60,2013-02-22 13:35:00
8:55 AM,57.2,51.8,82,30.10,10.0,ENE,11.5,-,N/A,,Overcast,60,2013-02-22 13:55:00
9:15 AM,57.2,50.0,77,30.11,10.0,ENE,12.7,-,N/A,,Overcast,70,2013-02-22 14:15:00
9:35 AM,55.4,50.0,82,30.11,10.0,East,12.7,-,N/A,,Overcast,80,2013-02-22 14:35:00
9:55 AM,55.4,50.0,82,30.11,10.0,ENE,11.5,-,N/A,Rain,Light Rain,70,2013-02-22 14:55:00
10:15 AM,55.4,51.8,88,30.12,7.0,ENE,8.1,-,N/A,Rain,Rain,60,2013-02-22 15:15:00
10:55 AM,53.6,51.8,94,30.12,10.0,ENE,9.2,-,N/A,Rain,Light Rain,70,2013-02-22 15:55:00
11:15 AM,55.4,53.6,94,30.11,10.0,East,12.7,-,N/A,Rain,Light Rain,80,2013-02-22 16:15:00
11:35 AM,55.4,53.6,94,30.09,10.0,ESE,9.2,-,N/A,,Overcast,110,2013-02-22 16:35:00
11:55 AM,55.4,53.6,94,30.11,10.0,East,8.1,-,N/A,Rain,Light Rain,80,2013-02-22 16:55:00
12:15 PM,55.4,53.6,94,30.10,10.0,NNE,6.9,-,N/A,Rain,Light Rain,30,2013-02-22 17:15:00
12:35 PM,55.4,53.6,94,30.08,10.0,East,9.2,-,N/A,,Overcast,90,2013-02-22 17:35:00
12:55 PM,55.4,53.6,94,30.08,7.0,ENE,8.1,-,N/A,Rain,Light Rain,70,2013-02-22 17:55:00
1:15 PM,55.4,55.4,100,30.07,7.0,ENE,9.2,-,N/A,,Overcast,70,2013-02-22 18:15:00
1:35 PM,57.2,55.4,94,30.06,7.0,East,8.1,-,N/A,,Overcast,90,2013-02-22 18:35:00
1:55 PM,59.0,55.4,88,30.07,7.0,NE,5.8,-,N/A,,Overcast,40,2013-02-22 18:55:00
2:15 PM,57.2,55.4,94,30.06,7.0,NE,6.9,-,N/A,,Overcast,40,2013-02-22 19:15:00
2:35 PM,57.2,55.4,94,30.07,5.0,North,6.9,-,N/A,,Overcast,10,2013-02-22 19:35:00
2:55 PM,57.2,55.4,94,30.06,5.0,NE,6.9,-,N/A,,Overcast,40,2013-02-22 19:55:00
3:15 PM,59.0,55.4,88,30.05,5.0,NE,8.1,-,N/A,,Overcast,40,2013-02-22 20:15:00
3:35 PM,59.0,55.4,88,30.04,5.0,NE,6.9,-,N/A,,Overcast,50,2013-02-22 20:35:00
3:55 PM,59.0,55.4,88,30.04,5.0,NE,6.9,-,N/A,,Overcast,50,2013-02-22 20:55:00
4:15 PM,59.0,55.4,88,30.05,5.0,NE,5.8,-,N/A,,Overcast,40,2013-02-22 21:15:00
4:55 PM,59.0,57.2,94,30.05,5.0,ENE,6.9,-,N/A,,Overcast,60,2013-02-22 21:55:00
5:15 PM,59.0,57.2,94,30.05,5.0,NE,5.8,-,N/A,,Overcast,50,2013-02-22 22:15:00
5:35 PM,59.0,57.2,94,30.04,4.0,ENE,6.9,-,N/A,,Overcast,60,2013-02-22 22:35:00
5:55 PM,57.2,55.4,94,30.03,3.0,NE,6.9,-,N/A,,Overcast,40,2013-02-22 22:55:00
6:15 PM,57.2,55.4,94,30.04,1.5,ENE,5.8,-,N/A,,Overcast,60,2013-02-22 23:15:00
6:35 PM,57.2,55.4,94,30.04,1.0,ENE,6.9,-,N/A,,Overcast,70,2013-02-22 23:35:00
6:55 PM,57.2,55.4,94,30.05,0.5,NE,4.6,-,N/A,Fog,Fog,50,2013-02-22 23:55:00
7:15 PM,55.4,55.4,100,30.06,0.5,East,4.6,-,N/A,Rain,Light Rain,80,2013-02-23 00:15:00
7:35 PM,55.4,55.4,100,30.07,0.5,North,5.8,-,N/A,Rain,Rain,10,2013-02-23 00:35:00
7:55 PM,55.4,53.6,94,30.07,1.0,NNE,6.9,-,N/A,Rain,Rain,20,2013-02-23 00:55:00
8:15 PM,55.4,53.6,94,30.08,1.0,NE,3.5,-,N/A,Rain,Light Rain,40,2013-02-23 01:15:00
8:35 PM,55.4,53.6,94,30.07,2.0,NE,5.8,-,N/A,Rain,Rain,50,2013-02-23 01:35:00
8:55 PM,53.6,53.6,100,30.07,4.0,NNE,5.8,-,N/A,Rain,Light Rain,30,2013-02-23 01:55:00
9:15 PM,53.6,53.6,100,30.04,5.0,ENE,11.5,-,N/A,Rain,Light Rain,70,2013-02-23 02:15:00
9:35 PM,53.6,53.6,100,30.07,7.0,NE,3.5,-,N/A,Rain,Light Rain,40,2013-02-23 02:35:00
9:55 PM,53.6,53.6,100,30.07,5.0,NE,5.8,-,N/A,Rain,Rain,50,2013-02-23 02:55:00
10:15 PM,53.6,53.6,100,30.05,5.0,NE,6.9,-,N/A,Rain,Rain,40,2013-02-23 03:15:00
10:35 PM,53.6,53.6,100,30.06,5.0,NNE,6.9,-,N/A,Rain,Light Rain,30,2013-02-23 03:35:00
10:55 PM,53.6,51.8,94,30.07,7.0,NNE,9.2,-,N/A,Rain,Light Rain,20,2013-02-23 03:55:00
11:15 PM,51.8,51.8,100,30.06,10.0,NNE,11.5,-,N/A,Rain,Rain,30,2013-02-23 04:15:00
11:35 PM,51.8,50.0,94,30.06,10.0,North,6.9,-,N/A,Rain,Rain,10,2013-02-23 04:35:00
11:55 PM,50.0,50.0,100,30.05,10.0,NE,8.1,-,N/A,Rain,Rain,40,2013-02-23 04:55:00